| time (UTC) | temp F | wind direction | speed MPH | gust MPH | rain 1hr in | rain 24hr in | rain mn in | humidity % | barometer mb |
| 20260905190546 | 99 | 291 | 2.0 | 6.0 | 0.00 | 0.11 | 0.00 | 50 | 1012.5 |
| 20260905185522 | 98 | 46 | 0.0 | 1.0 | 0.00 | 0.11 | 0.00 | 50 | 1012.5 |
| 20260905184518 | 98 | 312 | 2.0 | 7.0 | 0.00 | 0.11 | 0.00 | 53 | 1012.6 |
| 20260905183534 | 98 | 287 | 1.0 | 3.0 | 0.00 | 0.11 | 0.00 | 54 | 1012.9 |
| 20260905182530 | 97 | 293 | 2.0 | 6.0 | 0.00 | 0.11 | 0.00 | 55 | 1013.0 |
| 20260905181546 | 97 | 328 | 1.0 | 2.0 | 0.00 | 0.11 | 0.00 | 53 | 1013.1 |
| 20260905180524 | 98 | 140 | 1.0 | 3.0 | 0.00 | 0.11 | 0.00 | 55 | 1013.3 |
| 20260905175517 | 97 | 141 | 1.0 | 2.0 | 0.00 | 0.11 | 0.00 | 55 | 1013.3 |
| 20260905174613 | 96 | 135 | 1.0 | 3.0 | 0.00 | 0.11 | 0.00 | 56 | 1013.4 |
| 20260905173529 | 96 | 286 | 2.0 | 4.0 | 0.00 | 0.11 | 0.00 | 55 | 1013.5 |
| 20260905172525 | 96 | 287 | 1.0 | 6.0 | 0.00 | 0.11 | 0.00 | 58 | 1013.6 |
| 20260905171521 | 95 | 293 | 1.0 | 3.0 | 0.00 | 0.11 | 0.00 | 60 | 1013.8 |
| 20260905170517 | 95 | 250 | 1.0 | 4.0 | 0.00 | 0.11 | 0.00 | 61 | 1013.8 |
| 20260905165554 | 94 | 221 | 1.0 | 6.0 | 0.00 | 0.11 | 0.00 | 60 | 1013.9 |
| 20260905164530 | 94 | 222 | 1.0 | 3.0 | 0.00 | 0.11 | 0.00 | 63 | 1014.1 |
| 20260905163546 | 94 | 282 | 1.0 | 6.0 | 0.00 | 0.11 | 0.00 | 62 | 1014.2 |
| 20260905162521 | 93 | 276 | 2.0 | 3.0 | 0.00 | 0.11 | 0.00 | 64 | 1014.4 |
| 20260905161518 | 93 | 276 | 1.0 | 2.0 | 0.00 | 0.11 | 0.00 | 64 | 1014.5 |
| 20260905160534 | 92 | 276 | 1.0 | 1.0 | 0.00 | 0.11 | 0.00 | 65 | 1014.5 |
| 20260905155530 | 91 | 276 | 1.0 | 3.0 | 0.00 | 0.11 | 0.00 | 66 | 1014.7 |
| 20260905154546 | 91 | 276 | 1.0 | 2.0 | 0.00 | 0.11 | 0.00 | 68 | 1014.7 |
| 20260905153541 | 90 | 276 | 0.0 | 2.0 | 0.00 | 0.11 | 0.00 | 69 | 1014.7 |
| 20260905152518 | 90 | 276 | 1.0 | 3.0 | 0.00 | 0.11 | 0.00 | 71 | 1014.8 |
| 20260905151534 | 89 | 276 | 1.0 | 3.0 | 0.00 | 0.11 | 0.00 | 72 | 1014.6 |
| 20260905150529 | 88 | 276 | 1.0 | 3.0 | 0.00 | 0.11 | 0.00 | 75 | 1014.7 |
| 20260905145525 | 86 | 276 | 1.0 | 2.0 | 0.00 | 0.11 | 0.00 | 77 | 1014.7 |
| 20260905144521 | 86 | 276 | 0.0 | 1.0 | 0.00 | 0.11 | 0.00 | 77 | 1014.9 |
| 20260905143517 | 85 | 276 | 0.0 | 1.0 | 0.00 | 0.11 | 0.00 | 78 | 1014.7 |
| 20260905142534 | 85 | 276 | 1.0 | 2.0 | 0.00 | 0.11 | 0.00 | 81 | 1015.0 |
| 20260905141529 | 84 | 276 | 1.0 | 1.0 | 0.00 | 0.11 | 0.00 | 82 | 1015.1 |
| 20260905140545 | 83 | 276 | 0.0 | 1.0 | 0.00 | 0.11 | 0.00 | 84 | 1015.0 |
| 20260905135521 | 82 | 276 | 0.0 | 1.0 | 0.00 | 0.11 | 0.00 | 86 | 1015.1 |
| 20260905134516 | 81 | 276 | 0.0 | 1.0 | 0.00 | 0.11 | 0.00 | 89 | 1015.2 |
| 20260905133532 | 80 | 276 | 0.0 | 1.0 | 0.00 | 0.11 | 0.00 | 90 | 1015.3 |
| 20260905132527 | 79 | 276 | 0.0 | 1.0 | 0.00 | 0.11 | 0.00 | 91 | 1015.2 |
| 20260905131523 | 78 | 277 | 0.0 | 1.0 | 0.00 | 0.11 | 0.00 | 93 | 1015.3 |
| 20260905130519 | 78 | 277 | 1.0 | 1.0 | 0.00 | 0.11 | 0.00 | 94 | 1015.2 |
| 20260905125535 | 77 | 277 | 0.0 | 2.0 | 0.00 | 0.11 | 0.00 | 96 | 1015.3 |
| 20260905124531 | 76 | 0.0 | 0.0 | 0.00 | 0.11 | 0.00 | 97 | 1015.3 | |
| 20260905123527 | 76 | 277 | 0.0 | 1.0 | 0.00 | 0.11 | 0.00 | 97 | 1015.3 |
| 20260905122543 | 75 | 0.0 | 0.0 | 0.00 | 0.11 | 0.00 | 98 | 1015.3 | |
| 20260905121519 | 74 | 277 | 0.0 | 1.0 | 0.00 | 0.11 | 0.00 | 97 | 1015.2 |
| 20260905120555 | 74 | 0.0 | 0.0 | 0.00 | 0.11 | 0.00 | 97 | 1014.9 | |
| 20260905115532 | 74 | 0.0 | 0.0 | 0.00 | 0.11 | 0.00 | 96 | 1014.8 | |
| 20260905114528 | 74 | 0.0 | 0.0 | 0.00 | 0.11 | 0.00 | 96 | 1014.6 | |
| 20260905113523 | 74 | 0.0 | 0.0 | 0.00 | 0.11 | 0.00 | 96 | 1014.6 | |
| 20260905112539 | 74 | 0.0 | 0.0 | 0.00 | 0.11 | 0.00 | 96 | 1014.4 | |
| 20260905111535 | 74 | 277 | 0.0 | 1.0 | 0.00 | 0.11 | 0.00 | 96 | 1014.2 |
| 20260905110531 | 74 | 0.0 | 0.0 | 0.00 | 0.11 | 0.00 | 95 | 1014.1 | |
| 20260905105547 | 74 | 0.0 | 0.0 | 0.00 | 0.11 | 0.00 | 95 | 1014.2 | |
| 20260905104524 | 74 | 0.0 | 0.0 | 0.00 | 0.11 | 0.00 | 95 | 1014.1 | |
| 20260905103520 | 74 | 0.0 | 0.0 | 0.00 | 0.11 | 0.00 | 95 | 1013.9 | |
| 20260905102515 | 74 | 277 | 0.0 | 1.0 | 0.00 | 0.11 | 0.00 | 95 | 1013.8 |
| 20260905101532 | 74 | 0.0 | 0.0 | 0.00 | 0.11 | 0.00 | 95 | 1013.7 | |
| 20260905100528 | 74 | 0.0 | 0.0 | 0.00 | 0.11 | 0.00 | 95 | 1013.7 | |
| 20260905095604 | 74 | 0.0 | 0.0 | 0.00 | 0.11 | 0.00 | 94 | 1013.6 | |
| 20260905094520 | 74 | 0.0 | 0.0 | 0.00 | 0.11 | 0.00 | 94 | 1013.7 | |
| 20260905093536 | 74 | 0.0 | 0.0 | 0.00 | 0.11 | 0.00 | 94 | 1013.6 | |
| 20260905092532 | 75 | 0.0 | 0.0 | 0.00 | 0.11 | 0.00 | 93 | 1013.6 | |
| 20260905091528 | 75 | 0.0 | 0.0 | 0.00 | 0.11 | 0.00 | 93 | 1013.6 | |
| 20260905090524 | 75 | 0.0 | 0.0 | 0.00 | 0.11 | 0.00 | 93 | 1013.5 | |
| 20260905085520 | 75 | 0.0 | 0.0 | 0.00 | 0.11 | 0.00 | 93 | 1013.5 | |
| 20260905084516 | 75 | 0.0 | 0.0 | 0.00 | 0.11 | 0.00 | 93 | 1013.5 | |
| 20260905083532 | 75 | 0.0 | 0.0 | 0.00 | 0.11 | 0.00 | 93 | 1013.7 | |
| 20260905082548 | 75 | 0.0 | 0.0 | 0.00 | 0.11 | 0.00 | 92 | 1013.5 | |
| 20260905081544 | 75 | 0.0 | 0.0 | 0.00 | 0.11 | 0.00 | 92 | 1013.5 | |
| 20260905080520 | 75 | 0.0 | 0.0 | 0.00 | 0.11 | 0.00 | 92 | 1013.2 | |
| 20260905075516 | 75 | 0.0 | 0.0 | 0.00 | 0.11 | 0.00 | 91 | 1013.3 | |
| 20260905074532 | 76 | 0.0 | 0.0 | 0.00 | 0.11 | 0.00 | 91 | 1013.2 | |
| 20260905073528 | 76 | 0.0 | 0.0 | 0.00 | 0.11 | 0.00 | 91 | 1013.3 | |
| 20260905072524 | 76 | 0.0 | 0.0 | 0.00 | 0.11 | 0.00 | 90 | 1013.3 | |
| 20260905071520 | 76 | 277 | 1.0 | 1.0 | 0.00 | 0.11 | 0.00 | 90 | 1013.3 |
| 20260905070536 | 76 | 0.0 | 0.0 | 0.00 | 0.11 | 0.00 | 90 | 1013.4 | |
| 20260905065552 | 76 | 0.0 | 0.0 | 0.00 | 0.11 | 0.00 | 90 | 1013.5 | |
| 20260905064528 | 76 | 0.0 | 0.0 | 0.00 | 0.11 | 0.00 | 90 | 1013.6 | |
| 20260905063524 | 77 | 277 | 0.0 | 1.0 | 0.00 | 0.11 | 0.00 | 89 | 1013.8 |
| 20260905062520 | 77 | 0.0 | 0.0 | 0.00 | 0.11 | 0.00 | 89 | 1013.8 | |
| 20260905061516 | 77 | 0.0 | 0.0 | 0.00 | 0.11 | 0.00 | 89 | 1013.9 | |
| 20260905060532 | 77 | 0.0 | 0.0 | 0.00 | 0.11 | 0.00 | 89 | 1013.9 | |
| 20260905055528 | 77 | 0.0 | 0.0 | 0.00 | 0.11 | 0.00 | 88 | 1014.0 | |
| 20260905054524 | 77 | 0.0 | 0.0 | 0.00 | 0.11 | 0.00 | 88 | 1014.2 | |
| 20260905053520 | 77 | 0.0 | 0.0 | 0.00 | 0.11 | 0.00 | 88 | 1014.0 | |
| 20260905052516 | 77 | 0.0 | 0.0 | 0.00 | 0.11 | 0.00 | 87 | 1013.8 | |
| 20260905051532 | 77 | 277 | 0.0 | 1.0 | 0.00 | 0.11 | 0.00 | 87 | 1013.9 |
| 20260905050528 | 77 | 277 | 0.0 | 1.0 | 0.00 | 0.11 | 0.00 | 86 | 1014.0 |
| 20260905045525 | 77 | 0.0 | 0.0 | 0.00 | 0.11 | 0.11 | 86 | 1014.0 | |
| 20260905044520 | 78 | 0.0 | 0.0 | 0.00 | 0.11 | 0.11 | 85 | 1013.9 | |
| 20260905043515 | 78 | 0.0 | 0.0 | 0.00 | 0.11 | 0.11 | 85 | 1014.0 | |
| 20260905042532 | 78 | 0.0 | 0.0 | 0.00 | 0.11 | 0.11 | 85 | 1014.0 | |
| 20260905041529 | 78 | 0.0 | 0.0 | 0.00 | 0.11 | 0.11 | 85 | 1014.0 | |
| 20260905040544 | 78 | 0.0 | 0.0 | 0.00 | 0.11 | 0.11 | 85 | 1013.9 | |
| 20260905035520 | 78 | 277 | 0.0 | 1.0 | 0.00 | 0.11 | 0.11 | 84 | 1014.2 |
| 20260905034516 | 79 | 0.0 | 0.0 | 0.00 | 0.11 | 0.11 | 84 | 1014.2 | |
| 20260905033552 | 79 | 277 | 0.0 | 1.0 | 0.00 | 0.11 | 0.11 | 83 | 1014.4 |
| 20260905032527 | 79 | 0.0 | 0.0 | 0.00 | 0.11 | 0.11 | 83 | 1014.4 | |
| 20260905031524 | 79 | 277 | 0.0 | 1.0 | 0.00 | 0.11 | 0.11 | 82 | 1014.4 |
| 20260905030519 | 80 | 277 | 0.0 | 1.0 | 0.00 | 0.11 | 0.11 | 82 | 1014.4 |
| 20260905025535 | 80 | 277 | 0.0 | 1.0 | 0.00 | 0.11 | 0.11 | 81 | 1014.6 |
| 20260905024531 | 80 | 0.0 | 0.0 | 0.00 | 0.11 | 0.11 | 81 | 1014.7 | |
| 20260905023527 | 80 | 0.0 | 0.0 | 0.00 | 0.11 | 0.11 | 80 | 1014.7 | |
| 20260905022523 | 81 | 277 | 0.0 | 1.0 | 0.00 | 0.11 | 0.11 | 79 | 1014.6 |
| 20260905021519 | 81 | 0.0 | 0.0 | 0.00 | 0.11 | 0.11 | 78 | 1014.7 | |
| 20260905020555 | 81 | 0.0 | 0.0 | 0.00 | 0.11 | 0.11 | 77 | 1014.6 | |
| 20260905015550 | 82 | 277 | 0.0 | 1.0 | 0.00 | 0.11 | 0.11 | 77 | 1014.6 |
| 20260905014526 | 82 | 277 | 0.0 | 1.0 | 0.00 | 0.11 | 0.11 | 76 | 1014.5 |
| 20260905013522 | 83 | 277 | 0.0 | 1.0 | 0.00 | 0.11 | 0.11 | 75 | 1014.5 |
| 20260905012517 | 83 | 277 | 1.0 | 1.0 | 0.00 | 0.11 | 0.11 | 75 | 1014.5 |
| 20260905011533 | 83 | 277 | 0.0 | 1.0 | 0.00 | 0.11 | 0.11 | 75 | 1014.5 |
| 20260905010529 | 84 | 277 | 0.0 | 1.0 | 0.00 | 0.11 | 0.11 | 74 | 1014.3 |
| 20260905005525 | 84 | 0.0 | 0.0 | 0.00 | 0.11 | 0.11 | 73 | 1014.4 | |
| 20260905004520 | 84 | 277 | 0.0 | 1.0 | 0.00 | 0.11 | 0.11 | 73 | 1014.4 |
| 20260905003516 | 85 | 0.0 | 0.0 | 0.00 | 0.11 | 0.11 | 71 | 1014.3 | |
| 20260905002532 | 86 | 277 | 1.0 | 1.0 | 0.00 | 0.11 | 0.11 | 70 | 1014.3 |
| 20260905001528 | 86 | 0.0 | 0.0 | 0.00 | 0.11 | 0.11 | 69 | 1014.3 | |
| 20260905000524 | 87 | 277 | 0.0 | 1.0 | 0.00 | 0.11 | 0.11 | 68 | 1014.4 |
| 20260904235520 | 88 | 277 | 0.0 | 1.0 | 0.00 | 0.11 | 0.11 | 67 | 1014.2 |
| 20260904234535 | 88 | 277 | 0.0 | 1.0 | 0.00 | 0.11 | 0.11 | 66 | 1014.3 |
| 20260904233531 | 89 | 276 | 0.0 | 2.0 | 0.00 | 0.11 | 0.11 | 65 | 1014.3 |
| 20260904232527 | 90 | 276 | 1.0 | 2.0 | 0.00 | 0.11 | 0.11 | 64 | 1014.3 |
| 20260904231523 | 91 | 276 | 1.0 | 3.0 | 0.00 | 0.11 | 0.11 | 64 | 1014.0 |
| 20260904230519 | 92 | 276 | 1.0 | 3.0 | 0.00 | 0.11 | 0.11 | 64 | 1014.0 |
| 20260904225516 | 92 | 276 | 0.0 | 3.0 | 0.00 | 0.11 | 0.11 | 63 | 1013.8 |
| 20260904224532 | 93 | 280 | 1.0 | 2.0 | 0.00 | 0.11 | 0.11 | 61 | 1013.7 |
| 20260904223527 | 94 | 280 | 1.0 | 6.0 | 0.00 | 0.11 | 0.11 | 59 | 1013.7 |
| 20260904222524 | 95 | 288 | 3.0 | 7.0 | 0.00 | 0.11 | 0.11 | 60 | 1013.7 |
| 20260904221519 | 94 | 152 | 1.0 | 4.0 | 0.00 | 0.11 | 0.11 | 63 | 1013.6 |
| 20260904220515 | 93 | 132 | 1.0 | 4.0 | 0.00 | 0.11 | 0.11 | 67 | 1013.6 |
| 20260904215531 | 92 | 126 | 1.0 | 4.0 | 0.00 | 0.11 | 0.11 | 70 | 1013.5 |
| 20260904214527 | 91 | 106 | 1.0 | 1.0 | 0.00 | 0.11 | 0.11 | 75 | 1013.5 |
| 20260904213523 | 88 | 105 | 0.0 | 1.0 | 0.00 | 0.11 | 0.11 | 84 | 1013.4 |
| 20260904212519 | 85 | 105 | 1.0 | 1.0 | 0.00 | 0.11 | 0.11 | 85 | 1013.5 |
| 20260904211535 | 84 | 105 | 1.0 | 2.0 | 0.02 | 0.11 | 0.11 | 88 | 1013.6 |
| 20260904210531 | 82 | 104 | 0.0 | 1.0 | 0.10 | 0.11 | 0.11 | 89 | 1013.7 |
| 20260904205527 | 82 | 104 | 1.0 | 2.0 | 0.11 | 0.11 | 0.11 | 89 | 1013.5 |
| 20260904204523 | 82 | 104 | 1.0 | 1.0 | 0.11 | 0.11 | 0.11 | 86 | 1013.7 |
| 20260904203519 | 83 | 106 | 1.0 | 3.0 | 0.11 | 0.11 | 0.11 | 85 | 1014.1 |
| 20260904202535 | 85 | 106 | 0.0 | 1.0 | 0.10 | 0.10 | 0.10 | 74 | 1014.2 |
| 20260904201531 | 89 | 85 | 1.0 | 3.0 | 0.09 | 0.09 | 0.09 | 69 | 1014.6 |
| 20260904200527 | 97 | 13 | 3.0 | 11.0 | 0.01 | 0.01 | 0.01 | 59 | 1014.5 |
| 20260904195523 | 99 | 297 | 2.0 | 6.0 | 0.00 | 0.00 | 0.00 | 52 | 1014.3 |
| 20260904194519 | 98 | 297 | 1.0 | 3.0 | 0.00 | 0.00 | 0.00 | 54 | 1014.6 |
| 20260904193555 | 99 | 297 | 1.0 | 3.0 | 0.00 | 0.00 | 0.00 | 53 | 1014.6 |
| 20260904192531 | 98 | 297 | 2.0 | 7.0 | 0.00 | 0.00 | 0.00 | 54 | 1014.7 |
| 20260904191527 | 98 | 297 | 1.0 | 4.0 | 0.00 | 0.00 | 0.00 | 53 | 1014.9 |